Simultaneous Nadir Overpasses (SNOs) Predictions

Prediction of SNOs between METOP-B and NOAA-19 Satellite Orbit:

Table of predicted SNOs for the next 14.0 days since TLE Epoch: 7/2/2022
Index Date (METOP-B) Time (METOP-B) Lat,Lon (METOP-B) SZA (METOP-B ) Date (NOAA-19) Time (NOAA-19) Lat,Lon (NOAA-19) SZA (NOAA-19 ) Distance(km) Time Diff (sec)
1 07/07/2022 06:30:26 80.87, 116.01 59.77 07/07/2022 06:29:13 80.86, 116.07 59.74 1.61 73
2 07/07/2022 07:21:08 -80.85, -76.88 120.26 07/07/2022 07:20:10 -80.86, -76.96 120.28 1.43 58
3 07/07/2022 08:11:48 80.86, 90.52 59.76 07/07/2022 08:11:13 80.86, 90.52 59.74 0.16 35
4 07/07/2022 09:02:29 -80.87,-102.02 120.23 07/07/2022 09:02:09 -80.85,-102.13 120.25 2.32 20
5 07/07/2022 09:53:10 80.85, 65.03 59.74 07/07/2022 09:53:13 80.86, 64.97 59.75 1.35 3
6 07/07/2022 10:43:51 -80.86,-127.51 120.24 07/07/2022 10:44:09 -80.86,-127.68 120.25 3.05 18
7 07/07/2022 11:34:31 80.86, 39.89 59.78 07/07/2022 11:35:12 80.85, 39.79 59.78 2.11 41



Historial Predications of SNOs between METOP-B and NOAA-19
